Weather History for KLCH - November, 2012

Change the Weather History Date:

Sunday, November 11, 2012

  Actual Average Record
Temperature  
Mean Temperature 71 °F 62 °F  
Max Temperature 74 °F 73 °F 88 °F (1916)
Min Temperature 68 °F 52 °F 29 °F (1914)
Degree Days  
Heating Degree Days 0 5  
Month to date heating degree days 13 40  
Since 1 July heating degree days 55 76  
Cooling Degree Days 6 2  
Month to date cooling degree days 41 29  
Year to date cooling degree days 3179 2762  
Growing Degree Days 21 (Base 50)    
Moisture  
Dew Point 69 °F    
Average Humidity 92    
Maximum Humidity 100    
Minimum Humidity 84    
Precipitation  
Precipitation 0.22 in 0.15 in 3.48 in (1966)
Month to date precipitation 1.78 1.75  
Year to date precipitation 66.36 50.13  
Snow  
Snow 0.00 in 0.00 in 0.00 in ()
Month to date snowfall 0.0 0.0  
Since 1 July snowfall 0.0 0.0  
Since 1 September snowfall 0.0 0.0  
Snow Depth 0.00 in    
Sea Level Pressure  
Sea Level Pressure 30.04 in    
Wind  
Wind Speed 10 mph (SSE)    
Max Wind Speed 17 mph    
Max Gust Speed 22 mph    
Visibility 7 miles    
Events Rain    
T = Trace of Precipitation, MM = Missing Value Source: NWS Daily Summary

Daily Weather History Graph

Daily Weather History Graph

Search for Another Location

Airport or City:

Trip Planner

Search our weather history database for the weather conditions in past years. The results will help you decide how hot, cold, wet, or windy it might be!

Date:

Astronomy

Nov. 11, 2012 Rise Set
Actual Time 6:35 AM CST 5:18 PM CST
Civil Twilight 6:10 AM CST 5:43 PM CST
Nautical Twilight 5:41 AM CST 6:12 PM CST
Astronomical Twilight 5:12 AM CST 6:40 PM CST
Moon 3:58 AM CST (11/11) 3:35 PM CST (11/11)
Length of Visible Light 11h 33m
Length of Day
10h 43m
Waning Crescent, 7% of the Moon is Illuminated
Nov 11
Waning Crescent
Nov 13
New
Nov 20
First Quarter
Nov 28
Full
Dec 6
Last Quarter

Hourly Weather History & Observations

Time (CST) Temp. Dew Point Humidity Pressure Visibility Wind Dir Wind Speed Gust Speed Precip Events Conditions
12:53 AM 70.0 °F 64.0 °F 81% 30.06 in 10.0 mi SE 11.5 mph - N/A   Partly Cloudy
1:53 AM 69.1 °F 64.0 °F 84% 30.04 in 10.0 mi SE 11.5 mph - N/A   Clear
2:53 AM 68.0 °F 64.0 °F 87% 30.02 in 10.0 mi SE 10.4 mph - N/A   Clear
3:53 AM 68.0 °F 64.0 °F 87% 30.02 in 10.0 mi SE 11.5 mph - N/A   Clear
4:53 AM 68.0 °F 64.9 °F 90% 30.02 in 10.0 mi SE 10.4 mph - N/A   Mostly Cloudy
5:53 AM 69.1 °F 64.9 °F 87% 30.02 in 10.0 mi SE 12.7 mph - N/A   Mostly Cloudy
6:53 AM 69.1 °F 66.0 °F 90% 30.04 in 10.0 mi SE 9.2 mph - N/A   Overcast
7:53 AM 72.0 °F 66.9 °F 84% 30.05 in 10.0 mi SSE 11.5 mph - N/A   Overcast
8:13 AM 71.6 °F 68.0 °F 88% 30.04 in 2.5 mi SSE 12.7 mph - 0.00 in Rain Light Rain
8:29 AM 69.8 °F 68.0 °F 94% 30.04 in 5.0 mi SSE 8.1 mph - 0.01 in Rain Light Rain
8:53 AM 71.1 °F 69.1 °F 93% 30.07 in 9.0 mi SE 9.2 mph - 0.01 in Rain Light Rain
9:14 AM 71.6 °F 69.8 °F 94% 30.05 in 8.0 mi SE 15.0 mph 20.7 mph 0.00 in Rain Light Rain
9:53 AM 71.6 °F 69.8 °F 94% 30.05 in 3.0 mi SE 13.8 mph - N/A Rain Light Rain
10:16 AM 71.6 °F 69.8 °F 94% 30.05 in 2.5 mi SE 11.5 mph - 0.01 in Rain Light Rain
10:31 AM 71.6 °F 69.8 °F 94% 30.05 in 3.0 mi SE 13.8 mph - 0.01 in Rain Light Rain
10:36 AM 71.6 °F 69.8 °F 94% 30.05 in 1.8 mi SE 13.8 mph - 0.02 in Rain Rain
10:46 AM 71.6 °F 69.8 °F 94% 30.05 in 2.0 mi South 12.7 mph 19.6 mph 0.05 in Rain Light Rain
10:53 AM 71.1 °F 69.1 °F 93% 30.07 in 5.0 mi South 10.4 mph 20.7 mph 0.05 in Rain Light Rain
11:03 AM 71.6 °F 69.8 °F 94% 30.05 in 10.0 mi South 9.2 mph 17.3 mph 0.00 in   Overcast
11:11 AM 71.6 °F 69.8 °F 94% 30.05 in 7.0 mi SSE 6.9 mph - 0.00 in   Overcast
11:22 AM 71.6 °F 69.8 °F 94% 30.04 in 8.0 mi SSE 9.2 mph - 0.00 in   Overcast
11:40 AM 71.6 °F 69.8 °F 94% 30.04 in 10.0 mi SSE 11.5 mph - 0.00 in   Overcast
11:53 AM 72.0 °F 70.0 °F 93% 30.06 in 3.0 mi SSE 13.8 mph - 0.00 in Rain Rain
11:58 AM 71.6 °F 69.8 °F 94% 30.03 in 1.8 mi SSE 11.5 mph 18.4 mph 0.01 in Rain Rain
12:04 PM 71.6 °F 69.8 °F 94% 30.03 in 3.0 mi SSE 12.7 mph 18.4 mph 0.01 in Rain Light Rain
12:20 PM 71.6 °F 69.8 °F 94% 30.02 in 3.0 mi SSE 16.1 mph 21.9 mph 0.01 in Rain Light Rain
12:25 PM 71.6 °F 69.8 °F 94% 30.02 in 1.8 mi SSE 13.8 mph 21.9 mph 0.02 in Rain Rain
12:39 PM 71.6 °F 71.6 °F 100% 30.01 in 3.0 mi SSE 11.5 mph - 0.05 in Rain Light Rain
12:53 PM 72.0 °F 71.1 °F 97% 30.02 in 8.0 mi SSE 12.7 mph - 0.05 in Rain Light Rain
1:49 PM 73.4 °F 71.6 °F 94% 29.99 in 10.0 mi SSW 8.1 mph - 0.01 in   Overcast
1:53 PM 73.0 °F 70.0 °F 90% 30.02 in 10.0 mi South 8.1 mph - 0.01 in   Overcast
2:40 PM 73.4 °F 69.8 °F 88% 29.98 in 10.0 mi SSE 8.1 mph - 0.00 in Rain Light Rain
2:53 PM 73.0 °F 70.0 °F 90% 30.01 in 6.0 mi South 9.2 mph - 0.00 in Rain Light Rain
3:05 PM 73.4 °F 71.6 °F 94% 29.98 in 10.0 mi SE 10.4 mph - 0.00 in   Overcast
3:21 PM 73.4 °F 71.6 °F 94% 29.98 in 10.0 mi SSE 8.1 mph - 0.00 in   Overcast
3:40 PM 73.4 °F 71.6 °F 94% 29.99 in 8.0 mi SSE 12.7 mph - 0.00 in   Overcast
3:53 PM 73.0 °F 71.1 °F 93% 30.01 in 4.0 mi South 11.5 mph - 0.00 in Rain Light Rain
3:55 PM 73.4 °F 71.6 °F 94% 29.99 in 2.0 mi South 11.5 mph - 0.00 in Rain Light Rain
4:15 PM 71.6 °F 68.0 °F 88% 29.98 in 7.0 mi South 8.1 mph - 0.09 in Rain Light Rain
4:53 PM 71.1 °F 69.1 °F 93% 30.02 in 10.0 mi South 9.2 mph - 0.09 in   Overcast
5:53 PM 71.1 °F 69.1 °F 93% 30.02 in 10.0 mi SSE 10.4 mph - N/A   Mostly Cloudy
6:53 PM 71.1 °F 69.1 °F 93% 30.04 in 10.0 mi SSE 4.6 mph - N/A   Overcast
7:53 PM 72.0 °F 69.1 °F 91% 30.06 in 10.0 mi SSE 9.2 mph - N/A   Overcast
8:53 PM 71.1 °F 69.1 °F 93% 30.07 in 10.0 mi SE 8.1 mph - N/A   Overcast
9:53 PM 71.1 °F 69.1 °F 93% 30.09 in 8.0 mi SE 5.8 mph - N/A   Mostly Cloudy
10:53 PM 70.0 °F 69.1 °F 97% 30.10 in 5.0 mi Calm Calm - N/A   Overcast
11:18 PM 69.8 °F 69.8 °F 100% 30.08 in 3.0 mi Calm Calm - N/A   Overcast
11:35 PM 71.6 °F 69.8 °F 94% 30.07 in 6.0 mi South 3.5 mph - N/A   Scattered Clouds
11:53 PM 71.1 °F 70.0 °F 96% 30.09 in 6.0 mi South 4.6 mph - N/A   Partly Cloudy